{"data":{"norad_id":60734,"epoch":"2026-09-21T18:32:36.262752Z","epoch_age_seconds":78185,"freshness":"FRESH","line1":"1 60734U 24152Q   26264.77264193  .00000401  00000+0  23021-4 0  9999","line2":"2 60734  53.1604  75.4051 0001158  96.5583 263.5552 15.34388976116778","mean_motion":15.34388976,"eccentricity":0.0001158,"inclination_deg":53.1604,"raan_deg":75.4051,"arg_perigee_deg":96.5583,"mean_anomaly_deg":263.5552,"bstar":2.3021e-5,"rev_number":11677,"period_min":93.848432341709,"perigee_km":461.94383296038,"apogee_km":463.52817914858,"semimajor_km":6840.8730060545,"source":"CELESTRAK","updated_at":"2026-09-22T09:00:49.280370Z"}}